Weather History for Wolf Point, MT

Change the Weather History Date:

Wednesday, February 20, 2013

  Actual Average Record
Temperature  
Mean Temperature 11 °F -  
Max Temperature 18 °F 32 °F 52 °F (2002)
Min Temperature 4 °F 7 °F -9 °F (2001)
Degree Days  
Heating Degree Days 54    
Cooling Degree Days 0    
Moisture  
Dew Point 3 °F    
Average Humidity 72    
Maximum Humidity 81    
Minimum Humidity 62    
Precipitation  
Precipitation 0.00 in 0.01 in 0.03 in (1999)
Month to date precipitation 0.09 0.12  
Year to date precipitation 0.20 0.43  
Sea Level Pressure  
Sea Level Pressure 30.12 in    
Wind  
Wind Speed 10 mph (ENE)    
Max Wind Speed 14 mph    
Max Gust Speed -    
Visibility 10 miles    
Events      
T = Trace of Precipitation, MM = Missing Value Source: NWS Daily Summary

Daily Weather History Graph

Daily Weather History Graph

Search for Another Location

Airport:

Trip Planner

Search our weather history database for the weather conditions in past years. The results will help you decide how hot, cold, wet, or windy it might be!

Date:

Astronomy

Feb. 20, 2013 Rise Set
Actual Time 6:59 AM MST 5:33 PM MST
Civil Twilight 6:27 AM MST 6:04 PM MST
Nautical Twilight 5:51 AM MST 6:41 PM MST
Astronomical Twilight 5:15 AM MST 7:17 PM MST
Moon 12:43 PM MST (2/20) 3:35 AM MST (2/20)
Length of Visible Light 11h 36m
Length of Day
10h 33m
Waxing Gibbous, 76% of the Moon is Illuminated
Feb 20
Waxing Gibbous
Feb 25
Full
Mar 4
Last Quarter
Mar 11
New
Mar 19
First Quarter

Hourly Weather History & Observations

Time (MST) Temp. Windchill Dew Point Humidity Pressure Visibility Wind Dir Wind Speed Gust Speed Precip Events Conditions
12:53 AM 6.1 °F -10.9 °F -0.0 °F 76% 30.16 in 10.0 mi ENE 13.8 mph - N/A   Clear
1:53 AM 6.1 °F -10.9 °F -0.9 °F 73% 30.14 in 10.0 mi ENE 13.8 mph - N/A   Clear
2:53 AM 5.0 °F -12.3 °F -2.0 °F 73% 30.14 in 10.0 mi ENE 13.8 mph - N/A   Clear
3:53 AM 5.0 °F -12.3 °F -2.0 °F 73% 30.12 in 10.0 mi ENE 13.8 mph - N/A   Clear
4:53 AM 3.9 °F -13.0 °F -2.0 °F 76% 30.13 in 10.0 mi ENE 12.7 mph - N/A   Clear
5:53 AM 3.9 °F -11.3 °F -2.9 °F 73% 30.12 in 10.0 mi East 10.4 mph - N/A   Clear
6:53 AM 3.9 °F -12.2 °F -2.9 °F 73% 30.13 in 10.0 mi East 11.5 mph - N/A   Clear
7:53 AM 5.0 °F -10.8 °F -2.0 °F 73% 30.14 in 10.0 mi East 11.5 mph - N/A   Clear
9:53 AM 9.0 °F -6.6 °F -0.0 °F 67% 30.13 in 10.0 mi East 12.7 mph - N/A   Clear
10:53 AM 12.0 °F -0.4 °F 1.9 °F 64% 30.12 in 10.0 mi East 9.2 mph - N/A   Clear
11:53 AM 14.0 °F 2.9 °F 3.0 °F 62% 30.11 in 10.0 mi East 8.1 mph - N/A   Clear
12:53 PM 16.0 °F 5.3 °F 5.0 °F 62% 30.09 in 10.0 mi ENE 8.1 mph - N/A   Clear
1:53 PM 17.1 °F 6.6 °F 6.1 °F 62% 30.08 in 10.0 mi East 8.1 mph - N/A   Clear
2:53 PM 18.0 °F 7.7 °F 8.1 °F 65% 30.08 in 10.0 mi ENE 8.1 mph - N/A   Partly Cloudy
3:53 PM 18.0 °F 7.7 °F 8.1 °F 65% 30.08 in 10.0 mi ENE 8.1 mph - N/A   Clear
4:53 PM 17.1 °F 7.6 °F 8.1 °F 68% 30.08 in 10.0 mi ENE 6.9 mph - N/A   Partly Cloudy
5:53 PM 15.1 °F 7.7 °F 8.1 °F 74% 30.09 in 10.0 mi NE 4.6 mph - N/A   Mostly Cloudy
6:53 PM 12.9 °F 6.9 °F 7.0 °F 77% 30.11 in 10.0 mi NE 3.5 mph - N/A   Partly Cloudy
7:53 PM 10.9 °F 2.9 °F 6.1 °F 81% 30.12 in 10.0 mi ENE 4.6 mph - N/A   Partly Cloudy
8:53 PM 10.0 °F 3.6 °F 5.0 °F 80% 30.12 in 10.0 mi NE 3.5 mph - N/A   Overcast
9:53 PM 10.0 °F - 5.0 °F 80% 30.12 in 10.0 mi Calm Calm - N/A   Overcast
10:53 PM 9.0 °F - 3.9 °F 80% 30.13 in 10.0 mi Calm Calm - N/A   Partly Cloudy
11:53 PM 9.0 °F 0.6 °F 3.9 °F 80% 30.13 in 10.0 mi East 4.6 mph - N/A   Clear